星链-2158 (STARLINK-2158 )

导读

STARLINK-2158是美国SpaceX公司星链(Starlink)互联网星座的量产低轨卫星,于2021年3月4日发射入轨。它属于星链第二代组网卫星,采用平板设计,搭载Ku/Ka波段通信载荷、氪工质霍尔推进器,具备自主避撞能力,设计寿命约5-7年。该卫星旨在为全球提供高速宽带互联网服务,退役后会主动离轨坠入大气层焚毁,减少空间碎片影响。

基本信息
目录编号:
47744
目录名称:
STARLINK-2158
国际标识:
2021-017Y
轨道中心:
EARTH
卫星名称:
星链-2158
卫星全名:
星链-2158 (STARLINK-2158 )
卫星状态:
已陨落 最后检测时间 2024-07-04
发射日期:
2021-03-04 UTC
国别 :
美国 (US)
星等 :
--
轨道信息
数据来源 国际轨道数据
星历时间: 2024-07-04T11:45:26+0800
轨道信息已过期754天
半长轴: 6554.172km
偏心率: 0.0011986
轨道倾角: 53.038°
近地点辐角 271.412°
升交点赤经 33.721°
平近点角 199.725°
近地点: 168.181km
远地点: 183.893km
周期: 88.011分钟
每日圈数: 16.361611
详细信息
固有亮度:
5
最大亮度:
2.5
卫星平台:
Starlink V1.0
覆盖范围:
全球
运营商:
太空探索技术公司
运营商所在国:
美国
制造商(研发单位):
太空探索技术公司
制造商所在国:
美国
使用方式:
暂无
卫星简介
星链(Starlink)计划是由太空探索技术公司(SpaceX)提出的一个巨型低轨卫星互联网星座项目,计划在2019年至2024年间在太空搭建由约1.2万颗卫星组成的“星链”网络,其中1584颗将部署在地球上空550千米处的近地轨道,并从2020年开始工作。该卫星已陨落。